[[{"header":{"parameterUnit":"m.s-1","parameterCategory":1,"la1":30.2991,"la2":30.254,"lo1":-89.0895,"lo2":-89.0444,"dy":0.0017,"dx":0.0017,"nx":28,"ny":28,"refTime":"2026-01-05T03:00:00:Z","depth":0,"parameterNumber":2,"parameterNumberName":"U-component_of_WINDS"},"data":[0,0,0,0,0,0,0,0,0,0,0,0,0,0,0,0,0,0,0,0,0,0,0,0,0,0,0,0,0,0,0,0,0,0,0,0,0,0,0,0,0,0,0,0,0,0,0,0,0,0,0,0,0,0,0,0,0,0,-0.066,-0.0662,0,-0.0837,-0.0839,-0.0841,-0.0913,-0.0912,-0.0912,-0.0911,-0.1102,-0.1108,-0.1113,0,0,0,0,0,0,0,0,0,0,0,0,0,-0.0395,-0.04,-0.066,-0.0662,-0.0665,-0.0837,-0.0839,-0.0842,-0.0913,-0.0912,-0.0912,-0.0911,-0.1101,-0.1107,-0.1114,0,0,0,0,0,0,0,0,0,0,0,0,0,-0.0535,-0.0401,-0.066,-0.0721,-0.0728,-0.0836,-0.0839,-0.0842,-0.0913,-0.0912,-0.0912,-0.0911,-0.1098,-0.1106,-0.1115,-0.1179,0,0,-0.114,-0.1143,0,0,0,0,0,0,0,0,-0.0527,-0.0545,-0.0709,-0.0717,-0.0725,-0.0852,-0.0816,-0.0956,-0.0913,-0.0843,-0.0911,-0.0911,-0.102,-0.1035,-0.107,-0.1188,-0.1196,-0.114,-0.1145,-0.1149,-0.1151,0,0,0,0,0,0,0,-0.0517,-0.0538,-0.0731,-0.0712,-0.0721,-0.0743,-0.0762,-0.0843,-0.0934,-0.0849,-0.0855,-0.0874,-0.1024,-0.1062,-0.1075,-0.1199,-0.114,-0.1148,-0.1153,-0.1156,-0.1381,-0.1382,0,0,0,0,0,0,-0.0496,-0.0529,-0.0725,-0.0736,-0.0622,-0.0748,-0.0769,-0.0812,-0.0933,-0.095,-0.0874,-0.0877,-0.1048,-0.1065,-0.1082,-0.1166,-0.1149,-0.1157,-0.1161,-0.138,-0.1382,-0.1383,0,0,0,0,0,0,-0.049,-0.0513,-0.0718,-0.0634,-0.0662,-0.0753,-0.0801,-0.0816,-0.0853,-0.0952,-0.0969,-0.0895,-0.1048,-0.107,-0.1154,-0.1174,-0.116,-0.1168,-0.1379,-0.1381,-0.1382,-0.1335,0,0,0,0,0,0,-0.0482,-0.051,-0.0533,-0.0634,-0.0666,-0.0783,-0.0802,-0.082,-0.0866,-0.0871,-0.0976,-0.0993,-0.1049,-0.1141,-0.1162,-0.1185,-0.1174,-0.1378,-0.138,-0.1382,-0.1335,-0.1334,-0.1334,0,0,0,0,0,-0.0472,-0.0514,-0.0533,-0.0557,-0.0695,-0.0784,-0.0803,-0.0864,-0.0867,-0.0893,-0.0956,-0.0989,-0.1168,-0.1149,-0.1173,-0.1199,-0.1377,-0.1379,-0.1382,-0.1335,-0.1335,-0.1334,0,0,0,0,0,0,-0.0416,-0.0528,-0.0551,-0.0626,-0.0695,-0.0796,-0.083,-0.0862,-0.0933,-0.0935,-0.1012,-0.1035,-0.1113,-0.1165,-0.1142,-0.1269,-0.1276,-0.1283,-0.1232,-0.1232,-0.1232,-0.1218,-0.1181,0,0,0,0,0,-0.0411,-0.0471,-0.0567,-0.0624,-0.0657,-0.0737,-0.0779,-0.082,-0.0895,-0.0926,-0.0996,-0.1071,-0.1145,-0.1191,-0.1264,-0.1343,-0.1369,-0.1373,-0.1372,-0.1372,-0.1377,-0.1425,-0.1429,-0.1391,-0.1391,-0.139,0,0,-0.0404,-0.0473,-0.0506,-0.0615,-0.0673,-0.0736,-0.0762,-0.0827,-0.0876,-0.0937,-0.1019,-0.1074,-0.1163,-0.1245,-0.1285,-0.1291,-0.1394,-0.1375,-0.1373,-0.138,-0.1428,-0.1432,-0.1435,-0.1392,-0.1392,-0.1392,0,0,-0.0423,-0.048,-0.0534,-0.0592,-0.0678,-0.0732,-0.0745,-0.0842,-0.0879,-0.0963,-0.101,-0.1072,-0.1196,-0.1258,-0.1306,-0.135,-0.1384,-0.1372,-0.137,-0.1416,-0.1419,-0.1422,-0.144,-0.1445,-0.1377,-0.1377,-0.1377,0,-0.0404,-0.0498,-0.0559,-0.0622,-0.067,-0.0725,-0.0783,-0.0837,-0.0944,-0.0978,-0.0982,-0.114,-0.1204,-0.1302,-0.1313,-0.1349,-0.1369,-0.136,-0.1413,-0.1417,-0.1421,-0.1438,-0.1444,-0.1375,-0.1376,-0.1376,-0.1376,0,-0.0471,-0.0535,-0.057,-0.0668,-0.072,-0.078,-0.0854,-0.09,-0.0937,-0.0991,-0.1078,-0.1156,-0.1247,-0.1274,-0.1312,-0.1378,-0.1379,-0.1397,-0.1405,-0.1421,-0.1439,-0.1446,-0.1373,-0.1373,-0.1374,-0.1374,0,0,-0.0458,-0.059,-0.0602,-0.0648,-0.0749,-0.0802,-0.0867,-0.0952,-0.0991,-0.1064,-0.1122,-0.1226,-0.1244,-0.1298,-0.1345,-0.1384,-0.1417,-0.1399,-0.1402,-0.14,-0.1498,-0.1483,-0.149,-0.144,-0.1441,-0.1443,-0.149,0,-0.0492,-0.0604,-0.0662,-0.0752,-0.0814,-0.0869,-0.0926,-0.0996,-0.1048,-0.1112,-0.1172,-0.1245,-0.1262,-0.1295,-0.1337,-0.1403,-0.1438,-0.1401,-0.1498,-0.15,-0.1473,-0.1499,-0.1484,-0.1525,-0.1498,-0.1499,-0.15,0,-0.0545,-0.0614,-0.0708,-0.0803,-0.0832,-0.0881,-0.0965,-0.1024,-0.1106,-0.1142,-0.1203,-0.1248,-0.1322,-0.1324,-0.1429,-0.1403,-0.1447,-0.1486,-0.1489,-0.1501,-0.1501,-0.1513,-0.154,-0.1546,-0.1511,-0.151,-0.151,0,-0.0527,-0.0645,-0.0717,-0.0755,-0.0867,-0.09,-0.0949,-0.103,-0.1079,-0.1154,-0.1187,-0.1271,-0.1317,-0.1383,-0.1451,-0.1446,-0.155,-0.1558,-0.1585,-0.1583,-0.1605,-0.1602,-0.1639,-0.1631,-0.1631,-0.1631,-0.1631,0,-0.0558,-0.0614,-0.071,-0.0755,-0.0821,-0.0889,-0.0954,-0.1008,-0.108,-0.1139,-0.1193,-0.1248,-0.1334,-0.1402,-0.1456,-0.1536,-0.1557,-0.159,-0.1604,-0.1585,-0.1581,-0.1615,-0.1615,-0.1633,-0.1632,-0.1632,-0.1632,0,-0.0549,-0.0615,-0.0698,-0.0797,-0.0823,-0.0868,-0.0955,-0.1002,-0.1058,-0.1132,-0.1154,-0.1242,-0.1324,-0.1399,-0.1508,-0.1545,-0.1627,-0.1644,-0.1598,-0.1605,-0.1629,-0.1626,-0.169,-0.1702,-0.1684,-0.1684,-0.1684,0,-0.0564,-0.0609,-0.0712,-0.0753,-0.08,-0.0867,-0.0916,-0.0987,-0.1036,-0.1134,-0.1171,-0.1256,-0.1327,-0.1457,-0.1533,-0.1619,-0.1639,-0.1656,-0.1652,-0.1633,-0.1641,-0.1637,-0.1643,-0.1655,-0.1655,-0.1654,-0.1654,0,-0.0585,-0.0616,-0.0682,-0.0761,-0.0817,-0.0884,-0.0952,-0.0985,-0.1069,-0.1123,-0.1205,-0.1261,-0.1372,-0.1457,-0.1551,-0.1606,-0.1646,-0.1655,-0.1666,-0.1647,-0.1619,-0.1636,-0.1597,-0.1653,-0.1653,-0.1653,-0.1653,-0.1653,-0.059,-0.0632,-0.0711,-0.0785,-0.0843,-0.0906,-0.0955,-0.1017,-0.1086,-0.1179,-0.1218,-0.1303,-0.1388,-0.1517,-0.1572,-0.1642,-0.165,-0.1665,-0.167,-0.1672,-0.1669,-0.1607,-0.1659,-0.166,-0.166,-0.166,-0.166,0,-0.0615,-0.0668,-0.0734,-0.0827,-0.0886,-0.0914,-0.0992,-0.104,-0.1113,-0.1187,-0.1256,-0.1352,-0.1436,-0.1519,-0.1608,-0.1648,-0.1669,-0.1669,-0.1667,-0.168,-0.1657,-0.1639,-0.1651,-0.1651,-0.1651,-0.1651,-0.1651,-0.1651,-0.0634,-0.0707,-0.0748,-0.0852,-0.0907,-0.0987,-0.103,-0.109,-0.1149,-0.1253,-0.1321,-0.1374,-0.1453,-0.1548,-0.1627,-0.165,-0.1681,-0.1677,-0.1705,-0.1681,-0.1681,-0.1681,-0.1665,-0.1682,-0.1682,-0.1722,-0.1723,-0.1723]},{"header":{"parameterUnit":"m.s-1","parameterCategory":1,"la1":30.2991,"la2":30.254,"lo1":-89.0895,"lo2":-89.0444,"dy":0.0017,"dx":0.0017,"nx":28,"ny":28,"refTime":"2026-01-05T03:00:00:Z","depth":0,"parameterNumber":3,"parameterNumberName":"V-component_of_WINDS"},"data":[0,0,0,0,0,0,0,0,0,0,0,0,0,0,0,0,0,0,0,0,0,0,0,0,0,0,0,0,0,0,0,0,0,0,0,0,0,0,0,0,0,0,0,0,0,0,0,0,0,0,0,0,0,0,0,0,0,0,0.0521,0.0522,0,0.0643,0.0644,0.0645,0.07,0.07,0.07,0.07,0.0822,0.0825,0.0829,0,0,0,0,0,0,0,0,0,0,0,0,0,0.0334,0.0337,0.0521,0.0522,0.0524,0.0642,0.0644,0.0646,0.07,0.07,0.07,0.07,0.0821,0.0825,0.0829,0,0,0,0,0,0,0,0,0,0,0,0,0,0.0431,0.0338,0.052,0.0565,0.0571,0.0642,0.0644,0.0646,0.07,0.07,0.07,0.07,0.082,0.0825,0.083,0.0865,0,0,0.0845,0.0847,0,0,0,0,0,0,0,0,0.0426,0.0438,0.0557,0.0562,0.0568,0.0656,0.0623,0.0719,0.0701,0.0651,0.07,0.07,0.0767,0.0776,0.0799,0.087,0.0875,0.0845,0.0848,0.0851,0.0852,0,0,0,0,0,0,0,0.0419,0.0433,0.0569,0.0559,0.0566,0.0579,0.0593,0.0642,0.0708,0.0655,0.066,0.0673,0.077,0.0794,0.0803,0.0877,0.0845,0.085,0.0853,0.0855,0.0984,0.0984,0,0,0,0,0,0,0.0405,0.0427,0.0565,0.0572,0.0495,0.0583,0.0598,0.0628,0.0708,0.072,0.0674,0.0676,0.0786,0.0797,0.0807,0.0854,0.0851,0.0855,0.0858,0.0983,0.0984,0.0984,0,0,0,0,0,0,0.0401,0.0417,0.056,0.0501,0.052,0.0586,0.062,0.0631,0.0655,0.0722,0.0734,0.0686,0.0786,0.08,0.085,0.0859,0.0858,0.0862,0.0983,0.0984,0.0984,0.0948,0,0,0,0,0,0,0.0395,0.0415,0.0429,0.0501,0.0523,0.0602,0.062,0.0633,0.0664,0.0668,0.0737,0.0748,0.0787,0.0842,0.0855,0.0866,0.0866,0.0982,0.0983,0.0984,0.0948,0.0947,0.0946,0,0,0,0,0,0.0388,0.0413,0.043,0.0446,0.0543,0.0602,0.0615,0.0659,0.0665,0.068,0.0722,0.0746,0.0856,0.0847,0.0862,0.0874,0.0982,0.0983,0.0984,0.0949,0.0947,0.0946,0,0,0,0,0,0,0.034,0.0423,0.0442,0.0491,0.0539,0.0611,0.0631,0.0656,0.0703,0.0704,0.0757,0.0772,0.0818,0.0851,0.084,0.0913,0.0921,0.0925,0.0889,0.0888,0.0887,0.0878,0.087,0,0,0,0,0,0.0335,0.0376,0.0447,0.0484,0.0507,0.0565,0.0592,0.0623,0.0674,0.0694,0.0741,0.0789,0.0835,0.0863,0.0909,0.0953,0.0969,0.0969,0.0968,0.0967,0.0969,0.0996,0.0997,0.0987,0.0987,0.0987,0,0,0.0325,0.0376,0.0399,0.0475,0.0516,0.0558,0.0581,0.0624,0.0656,0.0701,0.0751,0.0787,0.0844,0.0892,0.0915,0.0921,0.0976,0.0968,0.0966,0.097,0.0997,0.0998,0.0999,0.0988,0.0988,0.0988,0,0,0.0328,0.0371,0.0406,0.0447,0.0509,0.0547,0.0555,0.0624,0.065,0.0702,0.0737,0.0774,0.0852,0.0891,0.0921,0.0941,0.0965,0.0954,0.0947,0.0973,0.0973,0.0974,0.0982,0.0983,0.0957,0.0957,0.0957,0,0.0308,0.0373,0.0421,0.0463,0.0495,0.0539,0.0576,0.0612,0.0685,0.0707,0.0712,0.0811,0.0852,0.0911,0.0915,0.0938,0.0949,0.0947,0.0969,0.0971,0.0972,0.098,0.0983,0.0955,0.0955,0.0955,0.0955,0,0.0345,0.0389,0.041,0.0481,0.0516,0.0555,0.0609,0.0639,0.0666,0.0704,0.0756,0.0808,0.0865,0.0881,0.0908,0.0943,0.0945,0.0959,0.0969,0.0971,0.0979,0.0982,0.0953,0.0953,0.0954,0.0954,0,0,0.032,0.0418,0.0425,0.0458,0.053,0.0565,0.0606,0.0663,0.0687,0.0736,0.0772,0.0836,0.0851,0.0885,0.0917,0.0939,0.0952,0.0951,0.0953,0.0949,0.0994,0.0983,0.0985,0.0968,0.0969,0.0969,0.0989,0,0.0333,0.0409,0.0454,0.0512,0.0554,0.0596,0.0632,0.0679,0.0716,0.0756,0.0796,0.0842,0.0857,0.0878,0.0902,0.0945,0.0961,0.0944,0.1001,0.1002,0.0985,0.099,0.0978,0.0994,0.0993,0.0993,0.0994,0,0.0359,0.0408,0.047,0.0538,0.0557,0.0589,0.0645,0.0683,0.0738,0.0763,0.0802,0.0834,0.0879,0.0885,0.0946,0.0933,0.0959,0.0984,0.0986,0.0993,0.0998,0.0997,0.1001,0.1003,0.0999,0.0998,0.0998,0,0.0335,0.0417,0.0465,0.0492,0.0572,0.0593,0.0628,0.0683,0.0714,0.0763,0.0784,0.0837,0.0866,0.0906,0.0952,0.0952,0.1009,0.1018,0.103,0.1029,0.104,0.1039,0.1048,0.1057,0.1057,0.1056,0.1056,0,0.0346,0.0382,0.0456,0.0485,0.0527,0.0578,0.0618,0.0656,0.0704,0.0741,0.0781,0.0815,0.0873,0.0914,0.0949,0.0995,0.1008,0.1029,0.1038,0.1026,0.1023,0.1043,0.1043,0.1057,0.1057,0.1057,0.1057,0,0.0326,0.0377,0.0432,0.0504,0.0523,0.0551,0.0612,0.0642,0.0681,0.0728,0.0742,0.0803,0.0853,0.0902,0.0969,0.0993,0.1039,0.1051,0.1021,0.1026,0.1035,0.1034,0.1058,0.1064,0.1067,0.1067,0.1067,0,0.0329,0.0358,0.0434,0.0462,0.0496,0.0541,0.0574,0.0626,0.0658,0.0724,0.0746,0.0799,0.0845,0.0923,0.0973,0.1024,0.1038,0.1043,0.1046,0.1033,0.1039,0.1036,0.104,0.1041,0.1041,0.1041,0.1041,0,0.033,0.0354,0.04,0.0456,0.0494,0.054,0.0588,0.0608,0.0669,0.0704,0.0757,0.0792,0.0861,0.0914,0.0972,0.1006,0.1034,0.104,0.1045,0.1033,0.1014,0.1025,0.1017,0.1039,0.1039,0.1039,0.1039,0.1039,0.0322,0.035,0.0408,0.0459,0.05,0.0544,0.0576,0.0619,0.0665,0.0726,0.0754,0.0807,0.0861,0.0942,0.0976,0.1018,0.1025,0.1033,0.1035,0.1036,0.1034,0.1008,0.1029,0.1029,0.1029,0.1029,0.1029,0,0.0325,0.0365,0.0411,0.0476,0.0516,0.054,0.0594,0.0625,0.0672,0.0721,0.0766,0.0826,0.0878,0.0932,0.0986,0.1009,0.1023,0.1022,0.102,0.1028,0.1024,0.1014,0.101,0.101,0.101,0.101,0.101,0.101,0.0331,0.038,0.0411,0.0481,0.0521,0.0574,0.0603,0.0643,0.0683,0.0749,0.0793,0.0828,0.0879,0.0938,0.0986,0.1001,0.1019,0.1014,0.1032,0.1027,0.1028,0.1029,0.102,0.1017,0.1017,0.1033,0.1033,0.1033]}]]